Auburn-Lewiston, ME

6:59 PM EDT on July 27, 2017 (GMT -0400)
Auburn-Lewiston Municipal

Weather History for KLEW - March, 2013

Change the Weather History Date:

Friday, March 15, 2013

  Actual Average Record
Temperature  
Mean Temperature 24 °F -  
Max Temperature 33 °F 35 °F 50 °F (2009)
Min Temperature 15 °F 20 °F 12 °F (2003)
Degree Days  
Heating Degree Days 41    
Moisture  
Dew Point 7 °F    
Average Humidity 48    
Maximum Humidity 80    
Minimum Humidity 30    
Precipitation  
Precipitation 0.00 in - - ()
Sea Level Pressure  
Sea Level Pressure 29.71 in    
Wind  
Wind Speed 10 mph (WNW)    
Max Wind Speed 17 mph    
Max Gust Speed 26 mph    
Visibility 10 miles    
Events      
Averages and records for this station are not official NWS values.
T = Trace of Precipitation, MM = Missing Value Source: NWS Daily Summary

Daily Weather History Graph

Daily Weather History Graph

Search for Another Location

Airport or City:

Trip Planner

Search our weather history database for the weather conditions in past years. The results will help you decide how hot, cold, wet, or windy it might be!

Date:

Astronomy

Mar. 15, 2013 Rise Set
Actual Time 6:52 AM EDT 6:47 PM EDT
Civil Twilight 6:24 AM EDT 7:16 PM EDT
Nautical Twilight 5:50 AM EDT 7:50 PM EDT
Astronomical Twilight 5:16 AM EDT 8:24 PM EDT
Moon 8:32 AM EDT (3/15) 11:08 PM EDT (3/15)
Length of Visible Light 12h 52m
Length of Day
11h 54m
Waxing Crescent, 15% of the Moon is Illuminated
Mar 15
Waxing Crescent
Mar 19
First Quarter
Mar 27
Full
Apr 3
Last Quarter
Apr 10
New

Hourly Weather History & Observations

Time (EDT) Temp. Windchill Dew Point Humidity Pressure Visibility Wind Dir Wind Speed Gust Speed Precip Events Conditions
12:15 AM 19.4 °F 5.5 °F 3.2 °F 49% 29.74 in 10.0 mi NNW 15.0 mph 20.7 mph N/A   Overcast
12:35 AM 19.4 °F 6.6 °F 3.2 °F 49% 29.74 in 10.0 mi NW 12.7 mph 19.6 mph N/A   Overcast
12:55 AM 19.4 °F 6.6 °F 3.2 °F 49% 29.74 in 10.0 mi NW 12.7 mph 21.9 mph N/A   Overcast
1:15 AM 19.4 °F 4.5 °F 3.2 °F 49% 29.74 in 10.0 mi NNW 17.3 mph 23.0 mph N/A   Overcast
1:35 AM 19.4 °F 5.5 °F 3.2 °F 49% 29.76 in 10.0 mi NNW 15.0 mph 20.7 mph N/A   Overcast
1:55 AM 19.4 °F 5.5 °F -0.4 °F 42% - 10.0 mi NNW 15.0 mph 24.2 mph N/A   Overcast
2:15 AM 17.6 °F 4.3 °F 1.4 °F 49% 29.78 in 10.0 mi NW 12.7 mph 26.5 mph N/A   Mostly Cloudy
2:35 AM 17.6 °F 3.7 °F 1.4 °F 49% - 10.0 mi NW 13.8 mph 23.0 mph N/A   Overcast
2:55 AM 17.6 °F 3.7 °F 1.4 °F 49% - 10.0 mi NNW 13.8 mph 24.2 mph N/A   Overcast
3:15 AM 17.6 °F 3.2 °F 1.4 °F 49% 29.78 in 10.0 mi NNW 15.0 mph 18.4 mph N/A   Mostly Cloudy
3:35 AM 17.6 °F 3.7 °F 1.4 °F 49% - 10.0 mi NNW 13.8 mph 21.9 mph N/A   Clear
3:55 AM 17.6 °F 4.3 °F -0.4 °F 45% 29.75 in 10.0 mi NW 12.7 mph 25.3 mph N/A   Clear
4:35 AM 17.6 °F 3.7 °F 1.4 °F 49% 29.76 in 10.0 mi NNW 13.8 mph 19.6 mph N/A   Clear
4:55 AM 17.6 °F 4.3 °F 1.4 °F 49% 29.76 in 10.0 mi NNW 12.7 mph 17.3 mph N/A   Clear
5:15 AM 17.6 °F 4.3 °F 1.4 °F 49% 29.75 in 10.0 mi NNW 12.7 mph 19.6 mph N/A   Clear
5:35 AM 17.6 °F 5.7 °F 1.4 °F 49% 29.76 in 10.0 mi NW 10.4 mph 16.1 mph N/A   Clear
5:55 AM 15.8 °F 6.1 °F 1.4 °F 53% 29.76 in 10.0 mi NNW 6.9 mph - N/A   Clear
6:15 AM 15.8 °F 6.1 °F 1.4 °F 53% 29.76 in 10.0 mi NNW 6.9 mph - N/A   Clear
6:35 AM 15.8 °F 4.2 °F 1.4 °F 53% 29.76 in 10.0 mi NNW 9.2 mph - N/A   Clear
6:55 AM 15.8 °F 6.1 °F 3.2 °F 58% 29.77 in 10.0 mi NW 6.9 mph - N/A   Clear
7:15 AM 15.8 °F 10.2 °F 1.4 °F 53% 29.77 in 10.0 mi WNW 3.5 mph - N/A   Clear
7:35 AM 15.8 °F 5.1 °F 3.2 °F 58% 29.77 in 10.0 mi NNW 8.1 mph - N/A   Clear
7:55 AM 17.6 °F 6.4 °F 3.2 °F 53% 29.77 in 10.0 mi NW 9.2 mph - N/A   Clear
8:15 AM 17.6 °F 5.7 °F 3.2 °F 53% 29.77 in 10.0 mi NNW 10.4 mph - N/A   Clear
8:35 AM 17.6 °F 8.2 °F 3.2 °F 53% 29.78 in 10.0 mi NW 6.9 mph - N/A   Clear
8:55 AM 17.6 °F 5.7 °F 1.4 °F 49% 29.77 in 10.0 mi NW 10.4 mph 18.4 mph N/A   Clear
9:15 AM 19.4 °F 7.9 °F 3.2 °F 49% 29.77 in 10.0 mi NW 10.4 mph - N/A   Clear
9:35 AM 19.4 °F 7.9 °F 1.4 °F 46% 29.76 in 10.0 mi NW 10.4 mph 16.1 mph N/A   Clear
9:55 AM 21.2 °F 10.1 °F 3.2 °F 46% 29.77 in 10.0 mi WNW 10.4 mph - N/A   Clear
10:15 AM 21.2 °F 9.5 °F 3.2 °F 46% 29.76 in 10.0 mi NW 11.5 mph 16.1 mph N/A   Clear
10:35 AM 23.0 °F 12.4 °F 3.2 °F 43% 29.75 in 10.0 mi WNW 10.4 mph - N/A   Clear
10:55 AM 24.8 °F 15.3 °F 5.0 °F 43% 29.74 in 10.0 mi NW 9.2 mph 17.3 mph N/A   Clear
11:15 AM 24.8 °F 16.1 °F 5.0 °F 43% 29.73 in 10.0 mi WNW 8.1 mph - N/A   Mostly Cloudy
11:35 AM 26.6 °F 16.8 °F 5.0 °F 40% 29.73 in 10.0 mi WNW 10.4 mph 18.4 mph N/A   Overcast
11:55 AM 26.6 °F 18.2 °F 5.0 °F 40% 29.73 in 10.0 mi NW 8.1 mph - N/A   Overcast
12:15 PM 26.6 °F 18.2 °F 6.8 °F 43% 29.71 in 10.0 mi NW 8.1 mph - N/A   Scattered Clouds
12:35 PM 28.4 °F 19.7 °F 5.0 °F 37% 29.70 in 10.0 mi NW 9.2 mph 17.3 mph N/A   Partly Cloudy
12:55 PM 28.4 °F 20.4 °F 6.8 °F 40% 29.69 in 10.0 mi NW 8.1 mph - N/A   Mostly Cloudy
1:15 PM 28.4 °F 19.1 °F 5.0 °F 37% - 10.0 mi West 10.4 mph 18.4 mph N/A   Overcast
1:35 PM 30.2 °F 23.4 °F 5.0 °F 34% 29.68 in 10.0 mi WNW 6.9 mph - N/A   Overcast
1:55 PM 30.2 °F 21.3 °F 6.8 °F 37% 29.66 in 10.0 mi WSW 10.4 mph - N/A   Overcast
2:15 PM 30.2 °F 25.4 °F 6.8 °F 37% 29.65 in 10.0 mi West 4.6 mph - N/A   Overcast
2:35 PM 30.2 °F 25.4 °F 3.2 °F 32% 29.64 in 10.0 mi NNW 4.6 mph - N/A   Overcast
2:55 PM 30.2 °F 22.6 °F 5.0 °F 34% 29.63 in 10.0 mi SW 8.1 mph - N/A   Overcast
3:15 PM 32.0 °F - 3.2 °F 30% 29.62 in 10.0 mi Calm Calm - N/A   Overcast
3:35 PM 33.8 °F 28.6 °F 6.8 °F 32% 29.61 in 10.0 mi WSW 5.8 mph - N/A   Scattered Clouds
3:55 PM 33.8 °F 27.0 °F 5.0 °F 30% 29.60 in 10.0 mi SSW 8.1 mph - N/A   Clear
4:15 PM 33.8 °F 29.6 °F 6.8 °F 32% 29.61 in 10.0 mi South 4.6 mph - N/A   Clear
4:35 PM 33.8 °F 27.0 °F 8.6 °F 35% - 10.0 mi SW 8.1 mph - N/A   Clear
4:55 PM 33.8 °F 27.0 °F 6.8 °F 32% - 10.0 mi SSW 8.1 mph - N/A   Clear
5:15 PM 33.8 °F 28.6 °F 6.8 °F 32% - 10.0 mi South 5.8 mph - N/A   Mostly Cloudy
5:55 PM 33.8 °F 27.0 °F 8.6 °F 35% - 10.0 mi WSW 8.1 mph - N/A   Overcast
6:15 PM 33.8 °F 30.8 °F 10.4 °F 38% - 10.0 mi SW 3.5 mph - N/A   Overcast
6:35 PM 33.8 °F 28.6 °F 10.4 °F 38% - 10.0 mi SE 5.8 mph - N/A   Overcast
6:55 PM 32.0 °F 25.6 °F 12.2 °F 44% - 10.0 mi SSE 6.9 mph - N/A   Overcast
7:15 PM 30.2 °F 24.3 °F 12.2 °F 47% - 10.0 mi SSE 5.8 mph - N/A   Overcast
7:55 PM 30.2 °F 24.3 °F 15.8 °F 55% - 10.0 mi SW 5.8 mph - N/A   Overcast
8:15 PM 32.0 °F 27.5 °F 17.6 °F 55% - 10.0 mi SW 4.6 mph - N/A   Mostly Cloudy
8:35 PM 30.2 °F - 17.6 °F 60% - 10.0 mi Calm Calm - N/A   Mostly Cloudy
8:55 PM 30.2 °F - 17.6 °F 60% - 10.0 mi Calm Calm - N/A   Scattered Clouds
9:15 PM 28.4 °F 24.6 °F 17.6 °F 64% - 10.0 mi South 3.5 mph - N/A   Clear
9:35 PM 26.6 °F - 17.6 °F 69% - 10.0 mi Calm Calm - N/A   Clear
9:55 PM 28.4 °F - 17.6 °F 64% 29.59 in 10.0 mi Calm Calm - N/A   Clear
10:15 PM 26.6 °F - 17.6 °F 69% 29.59 in 10.0 mi Calm Calm - N/A   Clear
10:35 PM 26.6 °F - 17.6 °F 69% 29.60 in 10.0 mi Calm Calm - N/A   Scattered Clouds
10:55 PM 26.6 °F - 19.4 °F 74% 29.59 in 10.0 mi Calm Calm - N/A   Mostly Cloudy
11:15 PM 24.8 °F - 19.4 °F 80% 29.60 in 10.0 mi Calm Calm - N/A   Partly Cloudy
11:35 PM 24.8 °F - 19.4 °F 80% 29.60 in 10.0 mi Calm Calm - N/A   Mostly Cloudy
11:55 PM 26.6 °F - 21.2 °F 80% 29.60 in 10.0 mi Calm Calm - N/A   Mostly Cloudy